Time,TemperatureF,DewpointF,PressureIn,WindDirection,WindDirectionDegrees,WindSpeedMPH,WindSpeedGustMPH,Humidity,HourlyPrecipIn,Conditions,Clouds,dailyrainin,SoftwareType,DateUTC
2013-09-30 00:01:00,74.4,52.3,29.98,NNW,327,0.0,0.0,46,0.00,,,0.00,WeatherCatV1.02B3,2013-09-30 04:01:00,
2013-09-30 00:06:00,74.3,52.2,29.98,NNW,327,0.0,0.0,46,0.00,,,0.00,WeatherCatV1.02B3,2013-09-30 04:06:00,
2013-09-30 00:11:00,74.2,52.1,29.98,NNW,327,0.0,0.0,46,0.00,,,0.00,WeatherCatV1.02B3,2013-09-30 04:11:00,
2013-09-30 00:16:00,74.1,51.4,29.98,NNW,327,0.0,0.0,45,0.00,,,0.00,WeatherCatV1.02B3,2013-09-30 04:16:00,
2013-09-30 00:21:00,74.0,51.3,29.97,NNW,327,0.0,0.0,45,0.00,,,0.00,WeatherCatV1.02B3,2013-09-30 04:21:00,
2013-09-30 00:26:00,74.0,50.7,29.97,NNW,327,0.0,0.0,44,0.00,,,0.00,WeatherCatV1.02B3,2013-09-30 04:26:00,
2013-09-30 00:31:00,73.9,50.6,29.97,NNW,327,0.0,0.0,44,0.00,,,0.00,WeatherCatV1.02B3,2013-09-30 04:31:00,
2013-09-30 00:36:00,73.7,50.4,29.97,NNW,327,0.0,0.0,44,0.00,,,0.00,WeatherCatV1.02B3,2013-09-30 04:36:00,
2013-09-30 00:41:00,73.6,50.3,29.96,NNW,327,0.0,0.0,44,0.00,,,0.00,WeatherCatV1.02B3,2013-09-30 04:41:00,
2013-09-30 00:46:00,73.5,50.2,29.96,NNW,327,0.0,0.0,44,0.00,,,0.00,WeatherCatV1.02B3,2013-09-30 04:46:00,
2013-09-30 00:51:00,73.3,50.1,29.96,NNW,327,0.0,0.0,44,0.00,,,0.00,WeatherCatV1.02B3,2013-09-30 04:51:00,
2013-09-30 00:56:00,73.2,50.0,29.96,NNW,327,0.0,0.0,44,0.00,,,0.00,WeatherCatV1.02B3,2013-09-30 04:56:00,
2013-09-30 01:01:00,73.1,49.9,29.96,NNW,327,0.0,0.0,44,0.00,,,0.00,WeatherCatV1.02B3,2013-09-30 05:01:00,
2013-09-30 01:06:00,73.0,49.8,29.96,NNW,327,0.0,0.0,44,0.00,,,0.00,WeatherCatV1.02B3,2013-09-30 05:06:00,
2013-09-30 01:11:00,72.9,49.1,29.96,NNW,327,0.0,0.0,43,0.00,,,0.00,WeatherCatV1.02B3,2013-09-30 05:11:00,
2013-09-30 01:16:00,72.8,49.0,29.96,NNW,327,0.0,0.0,43,0.00,,,0.00,WeatherCatV1.02B3,2013-09-30 05:16:00,
2013-09-30 01:21:00,72.7,48.9,29.96,NNW,327,0.0,0.0,43,0.00,,,0.00,WeatherCatV1.02B3,2013-09-30 05:21:00,
2013-09-30 01:26:00,72.5,49.3,29.96,NNW,327,0.0,0.0,44,0.00,,,0.00,WeatherCatV1.02B3,2013-09-30 05:26:00,
2013-09-30 01:31:00,72.5,48.7,29.96,NNW,327,0.0,0.0,43,0.00,,,0.00,WeatherCatV1.02B3,2013-09-30 05:31:00,
2013-09-30 01:36:00,72.4,48.6,29.95,NNW,327,0.0,0.0,43,0.00,,,0.00,WeatherCatV1.02B3,2013-09-30 05:36:00,
2013-09-30 01:41:00,72.3,48.5,29.95,NNW,327,0.0,0.0,43,0.00,,,0.00,WeatherCatV1.02B3,2013-09-30 05:41:00,
2013-09-30 01:46:00,72.3,47.9,29.95,NNW,327,0.0,0.0,42,0.00,,,0.00,WeatherCatV1.02B3,2013-09-30 05:46:00,
2013-09-30 01:51:00,72.2,47.8,29.95,NNW,327,0.0,0.0,42,0.00,,,0.00,WeatherCatV1.02B3,2013-09-30 05:51:00,
2013-09-30 01:56:00,72.3,47.3,29.95,NNW,327,0.0,0.0,41,0.00,,,0.00,WeatherCatV1.02B3,2013-09-30 05:56:00,
2013-09-30 02:01:00,72.2,47.2,29.94,NNW,327,0.0,0.0,41,0.00,,,0.00,WeatherCatV1.02B3,2013-09-30 06:01:00,
2013-09-30 02:06:00,72.1,47.7,29.94,NNW,327,0.0,0.0,42,0.00,,,0.00,WeatherCatV1.02B3,2013-09-30 06:06:00,
2013-09-30 02:11:00,72.1,47.1,29.95,NNW,327,0.0,0.0,41,0.00,,,0.00,WeatherCatV1.02B3,2013-09-30 06:11:00,
2013-09-30 02:16:00,72.0,47.0,29.95,NNW,327,0.0,0.0,41,0.00,,,0.00,WeatherCatV1.02B3,2013-09-30 06:16:00,
2013-09-30 02:21:00,71.9,46.9,29.94,NNW,327,0.0,0.0,41,0.00,,,0.00,WeatherCatV1.02B3,2013-09-30 06:21:00,
2013-09-30 02:26:00,71.8,46.8,29.94,NNW,327,0.0,0.0,41,0.00,,,0.00,WeatherCatV1.02B3,2013-09-30 06:26:00,
2013-09-30 02:31:00,71.8,46.8,29.94,NNW,327,0.0,0.0,41,0.00,,,0.00,WeatherCatV1.02B3,2013-09-30 06:31:00,
2013-09-30 02:36:00,71.7,46.7,29.94,NNW,327,0.0,0.0,41,0.00,,,0.00,WeatherCatV1.02B3,2013-09-30 06:36:00,
2013-09-30 02:41:00,71.7,46.1,29.94,NNW,327,0.0,0.0,40,0.00,,,0.00,WeatherCatV1.02B3,2013-09-30 06:41:00,
2013-09-30 02:46:00,71.7,46.1,29.94,NNW,327,0.0,0.0,40,0.00,,,0.00,WeatherCatV1.02B3,2013-09-30 06:46:00,
2013-09-30 02:51:00,71.7,45.4,29.94,NNW,327,0.0,0.0,39,0.00,,,0.00,WeatherCatV1.02B3,2013-09-30 06:51:00,
2013-09-30 02:56:00,71.8,45.5,29.94,NNW,327,0.0,0.0,39,0.00,,,0.00,WeatherCatV1.02B3,2013-09-30 06:56:00,
2013-09-30 03:01:00,71.8,45.5,29.94,NNW,327,0.0,1.0,39,0.00,,,0.00,WeatherCatV1.02B3,2013-09-30 07:01:00,
2013-09-30 03:06:00,71.8,45.5,29.94,NNW,327,0.0,0.0,39,0.00,,,0.00,WeatherCatV1.02B3,2013-09-30 07:06:00,
2013-09-30 03:11:00,71.9,44.9,29.94,NNW,327,0.0,0.0,38,0.00,,,0.00,WeatherCatV1.02B3,2013-09-30 07:11:00,
2013-09-30 03:16:00,71.9,44.9,29.94,NNW,327,0.0,0.0,38,0.00,,,0.00,WeatherCatV1.02B3,2013-09-30 07:16:00,
2013-09-30 03:21:00,71.9,44.9,29.94,NNW,327,0.0,0.0,38,0.00,,,0.00,WeatherCatV1.02B3,2013-09-30 07:21:00,
2013-09-30 03:26:00,72.0,45.0,29.94,NNW,327,0.0,0.0,38,0.00,,,0.00,WeatherCatV1.02B3,2013-09-30 07:26:00,
2013-09-30 03:31:00,72.0,45.0,29.94,NNW,327,0.0,0.0,38,0.00,,,0.00,WeatherCatV1.02B3,2013-09-30 07:31:00,
2013-09-30 03:36:00,72.0,45.0,29.94,NNW,327,0.0,0.0,38,0.00,,,0.00,WeatherCatV1.02B3,2013-09-30 07:36:00,
2013-09-30 03:41:00,72.1,45.1,29.94,NNW,327,0.0,0.0,38,0.00,,,0.00,WeatherCatV1.02B3,2013-09-30 07:41:00,
2013-09-30 03:46:00,72.1,44.4,29.94,NNW,327,0.0,0.0,37,0.00,,,0.00,WeatherCatV1.02B3,2013-09-30 07:46:00,
2013-09-30 03:51:00,72.1,44.4,29.94,NNW,327,0.0,0.0,37,0.00,,,0.00,WeatherCatV1.02B3,2013-09-30 07:51:00,
2013-09-30 03:56:00,72.1,44.4,29.94,NNW,327,0.0,0.0,37,0.00,,,0.00,WeatherCatV1.02B3,2013-09-30 07:56:00,
2013-09-30 04:01:00,72.1,45.1,29.94,NNW,327,0.0,0.0,38,0.00,,,0.00,WeatherCatV1.02B3,2013-09-30 08:01:00,
2013-09-30 04:06:00,72.1,45.1,29.94,NNW,327,0.0,2.0,38,0.00,,,0.00,WeatherCatV1.02B3,2013-09-30 08:06:00,
2013-09-30 04:11:00,72.0,45.0,29.93,NNW,327,0.0,0.0,38,0.00,,,0.00,WeatherCatV1.02B3,2013-09-30 08:11:00,
2013-09-30 04:16:00,71.9,44.9,29.93,NNW,327,0.0,0.0,38,0.00,,,0.00,WeatherCatV1.02B3,2013-09-30 08:16:00,
2013-09-30 04:21:00,71.9,44.9,29.93,NNW,327,0.0,0.0,38,0.00,,,0.00,WeatherCatV1.02B3,2013-09-30 08:21:00,
2013-09-30 04:26:00,71.8,44.8,29.93,NNW,327,0.0,0.0,38,0.00,,,0.00,WeatherCatV1.02B3,2013-09-30 08:26:00,
2013-09-30 04:31:00,71.7,44.7,29.93,NNW,327,0.0,0.0,38,0.00,,,0.00,WeatherCatV1.02B3,2013-09-30 08:31:00,
2013-09-30 04:36:00,71.6,44.6,29.94,NNW,327,0.0,0.0,38,0.00,,,0.00,WeatherCatV1.02B3,2013-09-30 08:36:00,
2013-09-30 04:41:00,71.5,44.5,29.94,NNW,327,0.0,0.0,38,0.00,,,0.00,WeatherCatV1.02B3,2013-09-30 08:41:00,
2013-09-30 04:46:00,71.5,44.5,29.94,NNW,327,0.0,0.0,38,0.00,,,0.00,WeatherCatV1.02B3,2013-09-30 08:46:00,
2013-09-30 04:51:00,71.4,44.5,29.94,NNW,327,0.0,0.0,38,0.00,,,0.00,WeatherCatV1.02B3,2013-09-30 08:51:00,
2013-09-30 04:56:00,71.3,44.4,29.94,NNW,327,0.0,0.0,38,0.00,,,0.00,WeatherCatV1.02B3,2013-09-30 08:56:00,
2013-09-30 05:01:00,71.3,44.4,29.94,NNW,327,0.0,0.0,38,0.00,,,0.00,WeatherCatV1.02B3,2013-09-30 09:01:00,
2013-09-30 05:06:00,71.3,44.4,29.94,NNW,327,0.0,0.0,38,0.00,,,0.00,WeatherCatV1.02B3,2013-09-30 09:06:00,
2013-09-30 05:11:00,71.2,44.3,29.94,NNW,327,0.0,0.0,38,0.00,,,0.00,WeatherCatV1.02B3,2013-09-30 09:11:00,
2013-09-30 05:16:00,71.1,44.2,29.94,NNW,327,0.0,0.0,38,0.00,,,0.00,WeatherCatV1.02B3,2013-09-30 09:16:00,
2013-09-30 05:21:00,71.1,44.2,29.94,NNW,327,0.0,0.0,38,0.00,,,0.00,WeatherCatV1.02B3,2013-09-30 09:21:00,
2013-09-30 05:26:00,71.0,44.1,29.94,NNW,327,0.0,0.0,38,0.00,,,0.00,WeatherCatV1.02B3,2013-09-30 09:26:00,
2013-09-30 05:31:00,71.0,44.1,29.94,NNW,327,0.0,0.0,38,0.00,,,0.00,WeatherCatV1.02B3,2013-09-30 09:31:00,
2013-09-30 05:36:00,71.0,44.1,29.94,NNW,327,0.0,0.0,38,0.00,,,0.00,WeatherCatV1.02B3,2013-09-30 09:36:00,
2013-09-30 05:41:00,70.9,44.0,29.94,NNW,327,0.0,0.0,38,0.00,,,0.00,WeatherCatV1.02B3,2013-09-30 09:41:00,
2013-09-30 05:46:00,70.9,44.0,29.94,NNW,327,0.0,0.0,38,0.00,,,0.00,WeatherCatV1.02B3,2013-09-30 09:46:00,
2013-09-30 05:51:00,70.9,44.0,29.94,NNW,327,0.0,0.0,38,0.00,,,0.00,WeatherCatV1.02B3,2013-09-30 09:51:00,
2013-09-30 05:56:00,70.9,44.0,29.94,NNW,327,0.0,0.0,38,0.00,,,0.00,WeatherCatV1.02B3,2013-09-30 09:56:00,
2013-09-30 06:01:00,71.0,44.1,29.94,NNW,327,0.0,0.0,38,0.00,,,0.00,WeatherCatV1.02B3,2013-09-30 10:01:00,
2013-09-30 06:06:00,70.9,44.0,29.95,NNW,327,0.0,0.0,38,0.00,,,0.00,WeatherCatV1.02B3,2013-09-30 10:06:00,
2013-09-30 06:11:00,71.0,44.1,29.94,NNW,327,1.0,3.0,38,0.00,,,0.00,WeatherCatV1.02B3,2013-09-30 10:11:00,
2013-09-30 06:16:00,71.0,44.1,29.95,NNW,327,0.0,0.0,38,0.00,,,0.00,WeatherCatV1.02B3,2013-09-30 10:16:00,
2013-09-30 06:21:00,71.0,44.1,29.95,NNW,327,0.0,0.0,38,0.00,,,0.00,WeatherCatV1.02B3,2013-09-30 10:21:00,
2013-09-30 06:26:00,71.0,44.1,29.95,NNW,327,0.0,0.0,38,0.00,,,0.00,WeatherCatV1.02B3,2013-09-30 10:26:00,
2013-09-30 06:31:00,71.0,43.4,29.95,NNW,327,0.0,0.0,37,0.00,,,0.00,WeatherCatV1.02B3,2013-09-30 10:31:00,
2013-09-30 06:36:00,70.9,44.0,29.96,NNW,327,0.0,0.0,38,0.00,,,0.00,WeatherCatV1.02B3,2013-09-30 10:36:00,
2013-09-30 06:41:00,70.9,44.0,29.96,NNW,327,0.0,0.0,38,0.00,,,0.00,WeatherCatV1.02B3,2013-09-30 10:41:00,
2013-09-30 06:46:00,70.8,43.9,29.96,NNW,327,0.0,0.0,38,0.00,,,0.00,WeatherCatV1.02B3,2013-09-30 10:46:00,
2013-09-30 06:51:00,70.8,43.9,29.96,NNW,327,3.0,3.0,38,0.00,,,0.00,WeatherCatV1.02B3,2013-09-30 10:51:00,
2013-09-30 06:57:00,70.7,43.8,29.96,NNW,327,0.0,0.0,38,0.00,,,0.00,WeatherCatV1.02B3,2013-09-30 10:57:00,
2013-09-30 07:02:00,70.7,43.8,29.96,NNW,327,1.0,2.0,38,0.00,,,0.00,WeatherCatV1.02B3,2013-09-30 11:02:00,
2013-09-30 07:07:00,70.7,43.8,29.96,NNW,327,1.0,1.0,38,0.00,,,0.00,WeatherCatV1.02B3,2013-09-30 11:07:00,
2013-09-30 07:12:00,70.8,43.2,29.96,NNW,327,0.0,2.0,37,0.00,,,0.00,WeatherCatV1.02B3,2013-09-30 11:12:00,
2013-09-30 07:17:00,70.8,43.2,29.97,NNW,327,0.0,0.0,37,0.00,,,0.00,WeatherCatV1.02B3,2013-09-30 11:17:00,
2013-09-30 07:22:00,70.8,43.2,29.97,NNW,327,0.0,0.0,37,0.00,,,0.00,WeatherCatV1.02B3,2013-09-30 11:22:00,
2013-09-30 07:27:00,70.8,43.2,29.97,NNW,327,2.0,3.0,37,0.00,,,0.00,WeatherCatV1.02B3,2013-09-30 11:27:00,
2013-09-30 07:32:00,70.9,43.3,29.97,NNW,327,0.0,0.0,37,0.00,,,0.00,WeatherCatV1.02B3,2013-09-30 11:32:00,
2013-09-30 07:37:00,70.9,43.3,29.97,NNW,327,0.0,1.0,37,0.00,,,0.00,WeatherCatV1.02B3,2013-09-30 11:37:00,
2013-09-30 07:42:00,71.0,43.4,29.97,NNW,327,0.0,0.0,37,0.00,,,0.00,WeatherCatV1.02B3,2013-09-30 11:42:00,
2013-09-30 07:47:00,71.1,43.5,29.97,NNW,327,0.0,0.0,37,0.00,,,0.00,WeatherCatV1.02B3,2013-09-30 11:47:00,
2013-09-30 07:52:00,71.3,43.7,29.97,NNW,327,0.0,1.0,37,0.00,,,0.00,WeatherCatV1.02B3,2013-09-30 11:52:00,
2013-09-30 07:57:00,71.4,43.0,29.97,NNW,327,0.0,1.0,36,0.00,,,0.00,WeatherCatV1.02B3,2013-09-30 11:57:00,
2013-09-30 08:02:00,71.5,43.8,29.98,NNW,327,0.0,0.0,37,0.00,,,0.00,WeatherCatV1.02B3,2013-09-30 12:02:00,
2013-09-30 08:07:00,71.8,43.4,29.97,North,350,0.0,3.0,36,0.00,,,0.00,WeatherCatV1.02B3,2013-09-30 12:07:00,
2013-09-30 08:12:00,72.0,43.6,29.97,North,350,0.0,0.0,36,0.00,,,0.00,WeatherCatV1.02B3,2013-09-30 12:12:00,
2013-09-30 08:17:00,72.2,43.7,29.97,North,350,5.0,5.0,36,0.00,,,0.00,WeatherCatV1.02B3,2013-09-30 12:17:00,
2013-09-30 08:22:00,72.4,43.9,29.97,North,350,0.0,1.0,36,0.00,,,0.00,WeatherCatV1.02B3,2013-09-30 12:22:00,
2013-09-30 08:27:00,72.5,44.0,29.98,North,350,0.0,0.0,36,0.00,,,0.00,WeatherCatV1.02B3,2013-09-30 12:27:00,
2013-09-30 08:32:00,72.6,44.1,29.98,North,350,0.0,0.0,36,0.00,,,0.00,WeatherCatV1.02B3,2013-09-30 12:32:00,
2013-09-30 08:37:00,72.8,44.3,29.98,North,350,0.0,0.0,36,0.00,,,0.00,WeatherCatV1.02B3,2013-09-30 12:37:00,
2013-09-30 08:42:00,72.9,44.4,29.98,North,350,0.0,0.0,36,0.00,,,0.00,WeatherCatV1.02B3,2013-09-30 12:42:00,
2013-09-30 08:47:00,73.1,44.5,29.98,North,350,0.0,0.0,36,0.00,,,0.00,WeatherCatV1.02B3,2013-09-30 12:47:00,
2013-09-30 08:52:00,73.3,44.7,29.99,North,350,0.0,0.0,36,0.00,,,0.00,WeatherCatV1.02B3,2013-09-30 12:52:00,
2013-09-30 08:57:00,73.6,45.0,29.99,North,350,0.0,0.0,36,0.00,,,0.00,WeatherCatV1.02B3,2013-09-30 12:57:00,
2013-09-30 09:02:00,73.8,45.2,29.99,North,350,0.0,4.0,36,0.00,,,0.00,WeatherCatV1.02B3,2013-09-30 13:02:00,
2013-09-30 09:07:00,74.3,45.6,29.99,North,350,2.0,3.0,36,0.00,,,0.00,WeatherCatV1.02B3,2013-09-30 13:07:00,
2013-09-30 09:12:00,74.7,45.2,29.99,North,350,0.0,4.0,35,0.00,,,0.00,WeatherCatV1.02B3,2013-09-30 13:12:00,
2013-09-30 09:17:00,75.1,45.6,29.99,North,350,0.0,0.0,35,0.00,,,0.00,WeatherCatV1.02B3,2013-09-30 13:17:00,
2013-09-30 09:22:00,75.2,45.7,29.99,North,350,0.0,4.0,35,0.00,,,0.00,WeatherCatV1.02B3,2013-09-30 13:22:00,
2013-09-30 09:27:00,75.3,45.7,29.99,North,350,0.0,0.0,35,0.00,,,0.00,WeatherCatV1.02B3,2013-09-30 13:27:00,
2013-09-30 09:32:00,75.7,46.1,29.99,North,350,0.0,1.0,35,0.00,,,0.00,WeatherCatV1.02B3,2013-09-30 13:32:00,
2013-09-30 09:37:00,75.9,46.3,29.99,North,350,3.0,4.0,35,0.00,,,0.00,WeatherCatV1.02B3,2013-09-30 13:37:00,
2013-09-30 09:42:00,76.3,46.6,30.00,North,350,0.0,3.0,35,0.00,,,0.00,WeatherCatV1.02B3,2013-09-30 13:42:00,
2013-09-30 09:47:00,76.8,47.1,30.00,North,350,0.0,1.0,35,0.00,,,0.00,WeatherCatV1.02B3,2013-09-30 13:47:00,
2013-09-30 09:52:00,77.2,47.4,30.00,North,350,2.0,3.0,35,0.00,,,0.00,WeatherCatV1.02B3,2013-09-30 13:52:00,
2013-09-30 09:57:00,77.5,47.7,30.00,North,350,0.0,0.0,35,0.00,,,0.00,WeatherCatV1.02B3,2013-09-30 13:57:00,
2013-09-30 10:02:00,77.8,48.7,30.00,North,350,0.0,0.0,36,0.00,,,0.00,WeatherCatV1.02B3,2013-09-30 14:02:00,
2013-09-30 10:07:00,78.3,49.1,30.00,North,350,0.0,0.0,36,0.00,,,0.00,WeatherCatV1.02B3,2013-09-30 14:07:00,
2013-09-30 10:12:00,78.7,50.2,30.00,North,350,0.0,1.0,37,0.00,,,0.00,WeatherCatV1.02B3,2013-09-30 14:12:00,
2013-09-30 10:17:00,79.0,51.2,30.00,North,350,0.0,0.0,38,0.00,,,0.00,WeatherCatV1.02B3,2013-09-30 14:17:00,
2013-09-30 10:22:00,79.5,51.6,30.00,North,356,1.0,2.0,38,0.00,,,0.00,WeatherCatV1.02B3,2013-09-30 14:22:00,
2013-09-30 10:27:00,79.8,54.6,30.00,North,355,0.0,0.0,42,0.00,,,0.00,WeatherCatV1.02B3,2013-09-30 14:27:00,
2013-09-30 10:32:00,80.3,56.4,30.00,North,358,2.0,4.0,44,0.00,,,0.00,WeatherCatV1.02B3,2013-09-30 14:32:00,
2013-09-30 10:37:00,80.7,60.3,30.00,North,356,0.0,0.0,50,0.00,,,0.00,WeatherCatV1.02B3,2013-09-30 14:37:00,
2013-09-30 10:42:00,81.3,60.3,30.00,NNW,348,0.0,0.0,49,0.00,,,0.00,WeatherCatV1.02B3,2013-09-30 14:42:00,
2013-09-30 10:47:00,81.8,60.7,30.00,NNE,26,0.0,3.0,49,0.00,,,0.00,WeatherCatV1.02B3,2013-09-30 14:47:00,
2013-09-30 10:52:00,82.1,62.1,30.00,NNE,28,2.0,5.0,51,0.00,,,0.00,WeatherCatV1.02B3,2013-09-30 14:52:00,
2013-09-30 10:57:00,82.3,62.9,29.99,NNE,28,0.0,2.0,52,0.00,,,0.00,WeatherCatV1.02B3,2013-09-30 14:57:00,
2013-09-30 11:02:00,82.7,63.3,29.99,NNE,28,0.0,1.0,52,0.00,,,0.00,WeatherCatV1.02B3,2013-09-30 15:02:00,
2013-09-30 11:07:00,83.0,65.1,29.99,NNE,28,0.0,0.0,55,0.00,,,0.00,WeatherCatV1.02B3,2013-09-30 15:07:00,
2013-09-30 11:12:00,83.3,65.9,29.99,NNE,28,0.0,0.0,56,0.00,,,0.00,WeatherCatV1.02B3,2013-09-30 15:12:00,
2013-09-30 11:17:00,83.6,65.7,29.99,NNE,28,0.0,1.0,55,0.00,,,0.00,WeatherCatV1.02B3,2013-09-30 15:17:00,
2013-09-30 11:22:00,84.1,66.7,29.99,NNE,28,0.0,2.0,56,0.00,,,0.00,WeatherCatV1.02B3,2013-09-30 15:22:00,
2013-09-30 11:27:00,84.4,68.0,29.99,NNE,28,2.0,3.0,58,0.00,,,0.00,WeatherCatV1.02B3,2013-09-30 15:27:00,
2013-09-30 11:32:00,84.6,68.2,29.99,NNE,28,0.0,0.0,58,0.00,,,0.00,WeatherCatV1.02B3,2013-09-30 15:32:00,
2013-09-30 11:37:00,84.9,68.9,29.99,NNE,28,0.0,4.0,59,0.00,,,0.00,WeatherCatV1.02B3,2013-09-30 15:37:00,
2013-09-30 11:42:00,85.3,70.3,29.99,NNE,28,0.0,0.0,61,0.00,,,0.00,WeatherCatV1.02B3,2013-09-30 15:42:00,
2013-09-30 11:47:00,85.5,70.0,29.99,NNE,28,0.0,4.0,60,0.00,,,0.00,WeatherCatV1.02B3,2013-09-30 15:47:00,
2013-09-30 11:52:00,85.8,70.3,29.99,NNE,28,0.0,4.0,60,0.00,,,0.00,WeatherCatV1.02B3,2013-09-30 15:52:00,
2013-09-30 11:57:00,86.1,71.0,29.99,NNE,28,2.0,2.0,61,0.00,,,0.00,WeatherCatV1.02B3,2013-09-30 15:57:00,
2013-09-30 12:02:00,86.3,71.7,29.98,NNE,28,0.0,0.0,62,0.00,,,0.00,WeatherCatV1.02B3,2013-09-30 16:02:00,
2013-09-30 12:07:00,86.7,72.1,29.98,North,351,2.0,3.0,62,0.00,,,0.00,WeatherCatV1.02B3,2013-09-30 16:07:00,
2013-09-30 12:12:00,87.3,73.1,29.98,North,356,1.0,1.0,63,0.00,,,0.00,WeatherCatV1.02B3,2013-09-30 16:12:00,
2013-09-30 12:17:00,87.8,73.6,29.98,North,359,1.0,4.0,63,0.00,,,0.00,WeatherCatV1.02B3,2013-09-30 16:17:00,
2013-09-30 12:22:00,88.2,74.0,29.98,North,359,0.0,1.0,63,0.00,,,0.00,WeatherCatV1.02B3,2013-09-30 16:22:00,
2013-09-30 12:27:00,88.5,73.8,29.98,North,358,2.0,5.0,62,0.00,,,0.00,WeatherCatV1.02B3,2013-09-30 16:27:00,
2013-09-30 12:32:00,88.9,74.6,29.98,North,10,0.0,1.0,63,0.00,,,0.00,WeatherCatV1.02B3,2013-09-30 16:32:00,
2013-09-30 12:37:00,89.2,74.9,29.98,North,10,0.0,1.0,63,0.00,,,0.00,WeatherCatV1.02B3,2013-09-30 16:37:00,
2013-09-30 12:42:00,89.8,75.5,29.98,North,10,2.0,6.0,63,0.00,,,0.00,WeatherCatV1.02B3,2013-09-30 16:42:00,
2013-09-30 12:47:00,90.2,75.9,29.98,North,10,0.0,5.0,63,0.00,,,0.00,WeatherCatV1.02B3,2013-09-30 16:47:00,
2013-09-30 12:52:00,90.5,75.7,29.98,NNE,28,2.0,3.0,62,0.00,,,0.00,WeatherCatV1.02B3,2013-09-30 16:52:00,
2013-09-30 12:57:00,90.6,76.2,29.97,NNE,28,1.0,3.0,63,0.00,,,0.00,WeatherCatV1.02B3,2013-09-30 16:57:00,
2013-09-30 13:02:00,90.9,76.0,29.97,NNE,28,0.0,2.0,62,0.00,,,0.00,WeatherCatV1.02B3,2013-09-30 17:02:00,
2013-09-30 13:07:00,90.8,75.9,29.97,NNE,31,0.0,1.0,62,0.00,,,0.00,WeatherCatV1.02B3,2013-09-30 17:07:00,
2013-09-30 13:12:00,90.5,75.7,29.96,NNE,18,0.0,4.0,62,0.00,,,0.00,WeatherCatV1.02B3,2013-09-30 17:12:00,
2013-09-30 13:17:00,89.9,75.1,29.96,NNE,15,0.0,0.0,62,0.00,,,0.00,WeatherCatV1.02B3,2013-09-30 17:17:00,
2013-09-30 13:22:00,89.4,74.6,29.96,NNE,15,2.0,4.0,62,0.00,,,0.00,WeatherCatV1.02B3,2013-09-30 17:22:00,
2013-09-30 13:27:00,88.8,74.5,29.96,NNE,15,0.0,0.0,63,0.00,,,0.00,WeatherCatV1.02B3,2013-09-30 17:27:00,
2013-09-30 13:32:00,88.3,74.1,29.95,NNE,15,0.0,0.0,63,0.00,,,0.00,WeatherCatV1.02B3,2013-09-30 17:32:00,
2013-09-30 13:37:00,87.8,73.6,29.95,NNE,15,0.0,2.0,63,0.00,,,0.00,WeatherCatV1.02B3,2013-09-30 17:37:00,
2013-09-30 13:42:00,87.4,73.2,29.95,NNE,15,0.0,0.0,63,0.00,,,0.00,WeatherCatV1.02B3,2013-09-30 17:42:00,
2013-09-30 13:47:00,87.1,72.9,29.96,NNE,15,0.0,0.0,63,0.00,,,0.00,WeatherCatV1.02B3,2013-09-30 17:47:00,
2013-09-30 13:52:00,87.1,72.9,29.95,NNE,15,0.0,0.0,63,0.00,,,0.00,WeatherCatV1.02B3,2013-09-30 17:52:00,
2013-09-30 13:57:00,87.2,73.5,29.95,NNE,15,3.0,4.0,64,0.00,,,0.00,WeatherCatV1.02B3,2013-09-30 17:57:00,
2013-09-30 14:02:00,87.8,73.6,29.94,NNE,15,0.0,2.0,63,0.00,,,0.00,WeatherCatV1.02B3,2013-09-30 18:02:00,
2013-09-30 14:07:00,88.5,74.3,29.94,NNE,15,0.0,0.0,63,0.00,,,0.00,WeatherCatV1.02B3,2013-09-30 18:07:00,
2013-09-30 14:12:00,88.6,74.4,29.94,NNE,15,1.0,4.0,63,0.00,,,0.00,WeatherCatV1.02B3,2013-09-30 18:12:00,
2013-09-30 14:17:00,88.9,74.2,29.94,NNE,15,0.0,1.0,62,0.00,,,0.00,WeatherCatV1.02B3,2013-09-30 18:17:00,
2013-09-30 14:22:00,89.2,74.9,29.94,NNE,15,0.0,0.0,63,0.00,,,0.00,WeatherCatV1.02B3,2013-09-30 18:22:00,
2013-09-30 14:27:00,89.6,74.8,29.94,North,356,3.0,3.0,62,0.00,,,0.00,WeatherCatV1.02B3,2013-09-30 18:27:00,
2013-09-30 14:32:00,90.0,74.2,29.94,North,353,1.0,7.0,60,0.00,,,0.00,WeatherCatV1.02B3,2013-09-30 18:32:00,
2013-09-30 14:37:00,90.4,74.6,29.94,WSW,248,9.0,9.0,60,0.00,,,0.00,WeatherCatV1.02B3,2013-09-30 18:37:00,
2013-09-30 14:42:00,90.3,75.0,29.94,NW,310,4.0,9.0,61,0.00,,,0.00,WeatherCatV1.02B3,2013-09-30 18:42:00,
2013-09-30 14:47:00,90.0,74.7,29.94,NW,326,6.0,7.0,61,0.00,,,0.00,WeatherCatV1.02B3,2013-09-30 18:47:00,
2013-09-30 14:52:00,89.6,74.3,29.93,NW,326,0.0,4.0,61,0.00,,,0.00,WeatherCatV1.02B3,2013-09-30 18:52:00,
2013-09-30 14:57:00,89.2,74.4,29.93,NW,322,2.0,4.0,62,0.00,,,0.00,WeatherCatV1.02B3,2013-09-30 18:57:00,
2013-09-30 15:02:00,88.7,74.4,29.93,NW,322,0.0,6.0,63,0.00,,,0.00,WeatherCatV1.02B3,2013-09-30 19:02:00,
2013-09-30 15:07:00,88.3,74.1,29.93,NW,322,0.0,3.0,63,0.00,,,0.00,WeatherCatV1.02B3,2013-09-30 19:07:00,
2013-09-30 15:12:00,87.9,73.7,29.93,NW,322,2.0,3.0,63,0.00,,,0.00,WeatherCatV1.02B3,2013-09-30 19:12:00,
2013-09-30 15:17:00,87.6,73.9,29.93,NW,322,3.0,5.0,64,0.00,,,0.00,WeatherCatV1.02B3,2013-09-30 19:17:00,
2013-09-30 15:22:00,87.7,74.0,29.93,NW,322,0.0,0.0,64,0.00,,,0.00,WeatherCatV1.02B3,2013-09-30 19:22:00,
2013-09-30 15:27:00,87.7,73.5,29.93,NW,322,0.0,2.0,63,0.00,,,0.00,WeatherCatV1.02B3,2013-09-30 19:27:00,
2013-09-30 15:32:00,87.8,74.1,29.93,NW,322,1.0,2.0,64,0.00,,,0.00,WeatherCatV1.02B3,2013-09-30 19:32:00,
2013-09-30 15:37:00,87.6,73.9,29.93,NW,322,0.0,3.0,64,0.00,,,0.00,WeatherCatV1.02B3,2013-09-30 19:37:00,
2013-09-30 15:42:00,87.5,74.2,29.92,NW,322,1.0,2.0,65,0.00,,,0.00,WeatherCatV1.02B3,2013-09-30 19:42:00,
2013-09-30 15:47:00,87.3,74.1,29.92,NW,322,2.0,3.0,65,0.00,,,0.00,WeatherCatV1.02B3,2013-09-30 19:47:00,
2013-09-30 15:52:00,87.1,73.9,29.92,NW,322,0.0,3.0,65,0.00,,,0.00,WeatherCatV1.02B3,2013-09-30 19:52:00,
2013-09-30 15:57:00,87.0,73.8,29.92,NW,322,0.0,0.0,65,0.00,,,0.00,WeatherCatV1.02B3,2013-09-30 19:57:00,
2013-09-30 16:02:00,86.8,73.1,29.92,NW,322,0.0,1.0,64,0.00,,,0.00,WeatherCatV1.02B3,2013-09-30 20:02:00,
2013-09-30 16:07:00,86.9,73.2,29.92,NW,322,0.0,0.0,64,0.00,,,0.00,WeatherCatV1.02B3,2013-09-30 20:07:00,
2013-09-30 16:12:00,87.1,73.4,29.92,NW,322,0.0,0.0,64,0.00,,,0.00,WeatherCatV1.02B3,2013-09-30 20:12:00,
2013-09-30 16:17:00,87.1,73.4,29.92,NW,322,2.0,3.0,64,0.00,,,0.00,WeatherCatV1.02B3,2013-09-30 20:17:00,
2013-09-30 16:22:00,87.1,72.9,29.92,NW,321,2.0,6.0,63,0.00,,,0.00,WeatherCatV1.02B3,2013-09-30 20:22:00,
2013-09-30 16:27:00,87.1,72.9,29.92,NW,321,0.0,3.0,63,0.00,,,0.00,WeatherCatV1.02B3,2013-09-30 20:27:00,
2013-09-30 16:32:00,87.1,72.9,29.92,NW,321,3.0,5.0,63,0.00,,,0.00,WeatherCatV1.02B3,2013-09-30 20:32:00,
2013-09-30 16:37:00,86.9,72.3,29.92,NW,321,5.0,5.0,62,0.00,,,0.00,WeatherCatV1.02B3,2013-09-30 20:37:00,
2013-09-30 16:42:00,86.7,72.6,29.92,NW,322,4.0,4.0,63,0.00,,,0.00,WeatherCatV1.02B3,2013-09-30 20:42:00,
2013-09-30 16:47:00,86.5,72.8,29.93,NW,322,3.0,6.0,64,0.00,,,0.00,WeatherCatV1.02B3,2013-09-30 20:47:00,
2013-09-30 16:52:00,86.3,72.2,29.93,NW,322,2.0,6.0,63,0.00,,,0.00,WeatherCatV1.02B3,2013-09-30 20:52:00,
2013-09-30 16:57:00,86.2,73.0,29.92,NW,322,2.0,4.0,65,0.00,,,0.00,WeatherCatV1.02B3,2013-09-30 20:57:00,
2013-09-30 17:02:00,85.9,72.3,29.93,NW,322,5.0,5.0,64,0.00,,,0.00,WeatherCatV1.02B3,2013-09-30 21:02:00,
2013-09-30 17:07:00,85.7,72.5,29.93,NW,322,1.0,1.0,65,0.00,,,0.00,WeatherCatV1.02B3,2013-09-30 21:07:00,
2013-09-30 17:12:00,85.6,72.5,29.93,NW,313,12.0,17.0,65,0.00,,,0.00,WeatherCatV1.02B3,2013-09-30 21:12:00,
2013-09-30 17:17:00,85.4,72.7,29.93,NW,323,5.0,15.0,66,0.00,,,0.00,WeatherCatV1.02B3,2013-09-30 21:17:00,
2013-09-30 17:22:00,85.0,72.3,29.93,NNW,329,10.0,10.0,66,0.00,,,0.00,WeatherCatV1.02B3,2013-09-30 21:22:00,
2013-09-30 17:27:00,84.7,72.1,29.93,NNW,343,5.0,15.0,66,0.00,,,0.00,WeatherCatV1.02B3,2013-09-30 21:27:00,
2013-09-30 17:32:00,84.3,71.7,29.93,NW,318,13.0,18.0,66,0.00,,,0.00,WeatherCatV1.02B3,2013-09-30 21:32:00,
2013-09-30 17:37:00,84.0,71.4,29.93,NNW,338,6.0,11.0,66,0.00,,,0.00,WeatherCatV1.02B3,2013-09-30 21:37:00,
2013-09-30 17:42:00,83.7,71.1,29.94,NW,325,6.0,11.0,66,0.00,,,0.00,WeatherCatV1.02B3,2013-09-30 21:42:00,
2013-09-30 17:47:00,83.3,70.7,29.94,NNW,340,6.0,15.0,66,0.00,,,0.00,WeatherCatV1.02B3,2013-09-30 21:47:00,
2013-09-30 17:52:00,83.0,70.4,29.94,NNW,341,6.0,13.0,66,0.00,,,0.00,WeatherCatV1.02B3,2013-09-30 21:52:00,
2013-09-30 17:57:00,82.7,70.2,29.94,North,0,7.0,14.0,66,0.00,,,0.00,WeatherCatV1.02B3,2013-09-30 21:57:00,
2013-09-30 18:02:00,82.5,70.0,29.94,North,352,6.0,15.0,66,0.00,,,0.00,WeatherCatV1.02B3,2013-09-30 22:02:00,
2013-09-30 18:07:00,82.2,69.2,29.94,NNW,348,3.0,10.0,65,0.00,,,0.00,WeatherCatV1.02B3,2013-09-30 22:07:00,
2013-09-30 18:12:00,82.0,69.0,29.94,NNW,327,12.0,17.0,65,0.00,,,0.00,WeatherCatV1.02B3,2013-09-30 22:12:00,
2013-09-30 18:17:00,81.8,68.9,29.94,NNW,341,5.0,12.0,65,0.00,,,0.00,WeatherCatV1.02B3,2013-09-30 22:17:00,
2013-09-30 18:22:00,81.6,68.2,29.95,NNW,347,6.0,13.0,64,0.00,,,0.00,WeatherCatV1.02B3,2013-09-30 22:22:00,
2013-09-30 18:27:00,81.4,68.0,29.95,North,352,9.0,15.0,64,0.00,,,0.00,WeatherCatV1.02B3,2013-09-30 22:27:00,
2013-09-30 18:32:00,81.3,67.5,29.95,NW,314,9.0,10.0,63,0.00,,,0.00,WeatherCatV1.02B3,2013-09-30 22:32:00,
2013-09-30 18:37:00,81.1,67.3,29.96,NW,318,5.0,16.0,63,0.00,,,0.00,WeatherCatV1.02B3,2013-09-30 22:37:00,
2013-09-30 18:42:00,80.9,66.6,29.95,NNW,346,9.0,11.0,62,0.00,,,0.00,WeatherCatV1.02B3,2013-09-30 22:42:00,
2013-09-30 18:47:00,80.8,65.6,29.96,NW,316,13.0,14.0,60,0.00,,,0.00,WeatherCatV1.02B3,2013-09-30 22:47:00,
2013-09-30 18:52:00,80.4,65.7,29.96,NNW,337,8.0,21.0,61,0.00,,,0.00,WeatherCatV1.02B3,2013-09-30 22:52:00,
2013-09-30 18:57:00,80.2,65.0,29.96,NNW,339,11.0,17.0,60,0.00,,,0.00,WeatherCatV1.02B3,2013-09-30 22:57:00,
2013-09-30 19:02:00,80.0,64.8,29.96,NW,312,12.0,12.0,60,0.00,,,0.00,WeatherCatV1.02B3,2013-09-30 23:02:00,
2013-09-30 19:07:00,79.7,64.6,29.96,NNW,327,3.0,13.0,60,0.00,,,0.00,WeatherCatV1.02B3,2013-09-30 23:07:00,
2013-09-30 19:12:00,79.6,64.5,29.96,North,353,6.0,17.0,60,0.00,,,0.00,WeatherCatV1.02B3,2013-09-30 23:12:00,
2013-09-30 19:17:00,79.4,64.3,29.96,NW,326,5.0,10.0,60,0.00,,,0.00,WeatherCatV1.02B3,2013-09-30 23:17:00,
2013-09-30 19:22:00,79.3,63.7,29.97,NW,323,4.0,7.0,59,0.00,,,0.00,WeatherCatV1.02B3,2013-09-30 23:22:00,
2013-09-30 19:27:00,79.2,63.1,29.96,NNW,337,4.0,6.0,58,0.00,,,0.00,WeatherCatV1.02B3,2013-09-30 23:27:00,
2013-09-30 19:32:00,79.1,63.5,29.97,North,356,5.0,15.0,59,0.00,,,0.00,WeatherCatV1.02B3,2013-09-30 23:32:00,
2013-09-30 19:37:00,78.9,63.8,29.97,NW,317,4.0,14.0,60,0.00,,,0.00,WeatherCatV1.02B3,2013-09-30 23:37:00,
2013-09-30 19:42:00,78.9,63.8,29.97,North,354,10.0,15.0,60,0.00,,,0.00,WeatherCatV1.02B3,2013-09-30 23:42:00,
2013-09-30 19:47:00,78.9,63.8,29.97,NW,311,12.0,14.0,60,0.00,,,0.00,WeatherCatV1.02B3,2013-09-30 23:47:00,
2013-09-30 19:52:00,78.9,63.8,29.97,North,350,6.0,7.0,60,0.00,,,0.00,WeatherCatV1.02B3,2013-09-30 23:52:00,
2013-09-30 19:57:00,78.7,63.6,29.97,NNW,348,7.0,12.0,60,0.00,,,0.00,WeatherCatV1.02B3,2013-09-30 23:57:00,
2013-09-30 20:02:00,78.7,63.6,29.97,North,1,10.0,16.0,60,0.00,,,0.00,WeatherCatV1.02B3,2013-10-01 00:02:00,
2013-09-30 20:07:00,78.7,64.1,29.97,NNW,335,6.0,10.0,61,0.00,,,0.00,WeatherCatV1.02B3,2013-10-01 00:07:00,
2013-09-30 20:12:00,78.7,64.1,29.97,NNE,21,4.0,7.0,61,0.00,,,0.00,WeatherCatV1.02B3,2013-10-01 00:12:00,
2013-09-30 20:17:00,78.6,64.0,29.98,NNW,348,6.0,12.0,61,0.00,,,0.00,WeatherCatV1.02B3,2013-10-01 00:17:00,
2013-09-30 20:22:00,78.5,63.9,29.98,North,354,3.0,9.0,61,0.00,,,0.00,WeatherCatV1.02B3,2013-10-01 00:22:00,
2013-09-30 20:27:00,78.5,63.9,29.98,NW,323,5.0,10.0,61,0.00,,,0.00,WeatherCatV1.02B3,2013-10-01 00:27:00,
2013-09-30 20:32:00,78.4,63.8,29.99,NNW,337,10.0,11.0,61,0.00,,,0.00,WeatherCatV1.02B3,2013-10-01 00:32:00,
2013-09-30 20:37:00,78.4,63.8,29.99,NNW,337,6.0,10.0,61,0.00,,,0.00,WeatherCatV1.02B3,2013-10-01 00:37:00,
2013-09-30 20:42:00,78.5,63.9,29.99,NNW,339,4.0,9.0,61,0.00,,,0.00,WeatherCatV1.02B3,2013-10-01 00:42:00,
2013-09-30 20:47:00,78.5,63.9,30.00,North,352,4.0,6.0,61,0.00,,,0.00,WeatherCatV1.02B3,2013-10-01 00:47:00,
2013-09-30 20:52:00,78.5,63.4,30.00,NNW,333,5.0,11.0,60,0.00,,,0.00,WeatherCatV1.02B3,2013-10-01 00:52:00,
2013-09-30 20:57:00,78.5,63.4,30.00,NNW,341,9.0,10.0,60,0.00,,,0.00,WeatherCatV1.02B3,2013-10-01 00:57:00,
2013-09-30 21:02:00,78.4,63.3,30.00,NNE,16,3.0,10.0,60,0.00,,,0.00,WeatherCatV1.02B3,2013-10-01 01:02:00,
2013-09-30 21:07:00,78.4,62.9,30.00,North,352,7.0,15.0,59,0.00,,,0.00,WeatherCatV1.02B3,2013-10-01 01:07:00,
2013-09-30 21:12:00,78.4,62.9,30.00,NNW,346,6.0,8.0,59,0.00,,,0.00,WeatherCatV1.02B3,2013-10-01 01:12:00,
2013-09-30 21:17:00,78.4,62.9,30.01,NNW,346,4.0,6.0,59,0.00,,,0.00,WeatherCatV1.02B3,2013-10-01 01:17:00,
2013-09-30 21:22:00,78.4,63.3,30.01,North,0,6.0,11.0,60,0.00,,,0.00,WeatherCatV1.02B3,2013-10-01 01:22:00,
2013-09-30 21:27:00,78.3,63.2,30.01,NNW,343,2.0,10.0,60,0.00,,,0.00,WeatherCatV1.02B3,2013-10-01 01:27:00,
2013-09-30 21:32:00,78.3,63.2,30.01,North,354,4.0,9.0,60,0.00,,,0.00,WeatherCatV1.02B3,2013-10-01 01:32:00,
2013-09-30 21:37:00,78.3,63.2,30.01,North,0,7.0,11.0,60,0.00,,,0.00,WeatherCatV1.02B3,2013-10-01 01:37:00,
2013-09-30 21:42:00,78.2,63.2,30.01,North,352,1.0,6.0,60,0.00,,,0.00,WeatherCatV1.02B3,2013-10-01 01:42:00,
2013-09-30 21:47:00,78.2,63.2,30.01,NNW,346,4.0,8.0,60,0.00,,,0.00,WeatherCatV1.02B3,2013-10-01 01:47:00,
2013-09-30 21:52:00,78.2,63.2,30.02,NNW,341,3.0,4.0,60,0.00,,,0.00,WeatherCatV1.02B3,2013-10-01 01:52:00,
2013-09-30 21:57:00,78.2,63.2,30.02,NNW,345,0.0,5.0,60,0.00,,,0.00,WeatherCatV1.02B3,2013-10-01 01:57:00,
2013-09-30 22:02:00,78.1,63.1,30.02,NNW,339,2.0,4.0,60,0.00,,,0.00,WeatherCatV1.02B3,2013-10-01 02:02:00,
2013-09-30 22:07:00,78.1,63.1,30.02,NNW,347,4.0,7.0,60,0.00,,,0.00,WeatherCatV1.02B3,2013-10-01 02:07:00,
2013-09-30 22:12:00,78.0,63.0,30.02,North,358,3.0,4.0,60,0.00,,,0.00,WeatherCatV1.02B3,2013-10-01 02:12:00,
2013-09-30 22:17:00,78.0,63.0,30.02,North,352,1.0,6.0,60,0.00,,,0.00,WeatherCatV1.02B3,2013-10-01 02:17:00,
2013-09-30 22:22:00,78.0,63.0,30.02,North,352,0.0,3.0,60,0.00,,,0.00,WeatherCatV1.02B3,2013-10-01 02:22:00,
2013-09-30 22:27:00,78.0,63.0,30.02,North,352,3.0,6.0,60,0.00,,,0.00,WeatherCatV1.02B3,2013-10-01 02:27:00,
2013-09-30 22:32:00,78.0,63.0,30.03,North,352,2.0,3.0,60,0.00,,,0.00,WeatherCatV1.02B3,2013-10-01 02:32:00,
2013-09-30 22:37:00,78.0,62.5,30.03,North,354,5.0,6.0,59,0.00,,,0.00,WeatherCatV1.02B3,2013-10-01 02:37:00,
2013-09-30 22:42:00,77.9,62.4,30.03,North,354,4.0,4.0,59,0.00,,,0.00,WeatherCatV1.02B3,2013-10-01 02:42:00,
2013-09-30 22:47:00,77.9,62.4,30.03,North,354,3.0,5.0,59,0.00,,,0.00,WeatherCatV1.02B3,2013-10-01 02:47:00,
2013-09-30 22:52:00,77.9,62.4,30.02,North,352,0.0,5.0,59,0.00,,,0.00,WeatherCatV1.02B3,2013-10-01 02:52:00,
2013-09-30 22:57:00,77.9,62.4,30.02,North,352,0.0,3.0,59,0.00,,,0.00,WeatherCatV1.02B3,2013-10-01 02:57:00,
2013-09-30 23:02:00,77.9,61.9,30.02,North,350,0.0,3.0,58,0.00,,,0.00,WeatherCatV1.02B3,2013-10-01 03:02:00,
2013-09-30 23:08:00,77.9,61.9,30.02,North,350,0.0,3.0,58,0.00,,,0.00,WeatherCatV1.02B3,2013-10-01 03:08:00,
2013-09-30 23:13:00,77.8,61.8,30.02,North,350,4.0,6.0,58,0.00,,,0.00,WeatherCatV1.02B3,2013-10-01 03:13:00,
2013-09-30 23:18:00,77.8,61.3,30.02,North,351,3.0,6.0,57,0.00,,,0.00,WeatherCatV1.02B3,2013-10-01 03:18:00,
2013-09-30 23:23:00,77.8,61.3,30.02,North,352,4.0,5.0,57,0.00,,,0.00,WeatherCatV1.02B3,2013-10-01 03:23:00,
2013-09-30 23:28:00,77.7,61.2,30.02,North,352,2.0,4.0,57,0.00,,,0.00,WeatherCatV1.02B3,2013-10-01 03:28:00,
2013-09-30 23:32:00,77.7,60.7,30.02,North,352,0.0,5.0,56,0.00,,,0.00,WeatherCatV1.02B3,2013-10-01 03:32:00,
2013-09-30 23:37:00,77.7,60.7,30.02,North,352,0.0,5.0,56,0.00,,,0.00,WeatherCatV1.02B3,2013-10-01 03:37:00,
2013-09-30 23:43:00,77.6,60.6,30.02,North,352,2.0,2.0,56,0.00,,,0.00,WeatherCatV1.02B3,2013-10-01 03:43:00,
2013-09-30 23:47:00,77.6,60.1,30.02,North,352,2.0,5.0,55,0.00,,,0.00,WeatherCatV1.02B3,2013-10-01 03:47:00,
2013-09-30 23:52:00,77.6,60.1,30.02,North,352,0.0,4.0,55,0.00,,,0.00,WeatherCatV1.02B3,2013-10-01 03:52:00,
2013-09-30 23:58:00,77.5,60.0,30.02,North,352,0.0,4.0,55,0.00,,,0.00,WeatherCatV1.02B3,2013-10-01 03:58:00,